CAPE
338 912 937 1329 1470 1262 1238 1286 1259 1320 1161 1235 927 1326 1267 1409 1172 1341 1355 1365 1109 1168 1214 1139 975 965 696 403 609 1062 968 997 1183 446 620 892 717 379 870 1145 1042 597 1075
529 883 1208 1421 1422 1281 1578 1318 1257 1293 1260 1268 1277 1303 1393 1518 1421 1647 1397 1272 1093 1155 1093 1056 1087 1079 939 729 999 656 557 925 1487 1370 1442 1558 1367 975 1533 1162 943 839 1314
631 652 1053 1376 1418 1374 1502 1483 1306 1250 1207 1254 1534 1166 1319 1305 1230 1401 1085 1038 1212 1265 1218 1178 1017 897 824 961 545 1136 1274 1173 939 954 1438 1829 947 1376 1506 1642 1215 1307 1750
395 776 1449 1172 1446 1042 1283 1297 1249 1451 1465 1582 1610 1536 1266 1138 788 748 1169 975 736 956 1156 1208 1253 1249 1272 1166 1059 930 497 1052 1350 1362 1380 1269 1055 963 1581 1509 1629 1103 1581
654 735 1054 1510 1403 882 1366 1089 1122 784 829 673 592 646 731 771 736 734 721 717 758 957 836 798 953 1120 1352 1338 1336 1305 1091 487 423 1124 1155 875 801 614 1401 1376 1765 1117 1489
584 650 1339 1319 657 1466 1036 1565 1153 1374 1462 1514 1465 1263 1048 912 835 803 737 610 525 450 661 1151 1298 1522 1331 1136 1049 1141 1225 1358 1255 426 400 565 790 653 708 994 1519 1814 1512
546 834 1165 1126 1106 1135 1346 1265 1292 1314 1149 924 717 564 519 431 397 572 886 1244 1447 1449 1360 1250 879 963 1043 1480 1426 1433 1315 1269 1202 899 502 283 405 738 1082 1205 1129 1192 1377
163 631 922 1074 1314 1286 1261 1270 1377 922 570 453 433 416 435 593 782 1207 1203 1083 1294 1339 1162 746 726 760 905 1086 1282 1410 1456 1409 1311 929 616 432 438 738 1149 1119 1038 1192 1313
327 439 856 1028 952 938 931 929 822 614 580 497 557 553 760 823 693 869 706 600 964 915 906 631 722 759 883 1174 1467 1300 1478 1461 1727 947 859 678 825 1097 1339 1216 1381 1385 1381
330 156 227 679 784 294 337 485 535 512 557 718 842 1109 1480 1069 1098 1110 1287 1024 1084 1087 1045 1221 1314 1339 1549 1454 1594 1913 1543 1408 1481 1283 867 812 800 914 1261 1460 1024 1013 979
189 21 115 208 95 16 84 95 466 584 815 1146 1121 1243 444 820 363 380 1191 1421 1682 1579 1643 1552 1359 1480 1474 1563 1849 2326 2397 1797 1401 1199 1053 952 1116 1586 1743 1444 1292 1226 1199
5 17 88 61 2 0 0 108 538 472 490 570 513 452 402 487 49 410 741 1032 1304 1522 1771 1682 1671 1675 1761 1944 1715 1562 1715 1497 936 1268 1067 1324 948 780 792 825 828 875 922
0 0 1 0 0 0 0 1 186 240 339 460 556 437 103 223 270 678 716 805 989 1336 1300 1200 1003 1131 1448 1562 1357 1184 1505 701 867 838 883 583 410 254 296 392 581 731 819
0 0 0 0 0 0 0 0 0 30 175 401 782 784 201 364 670 924 1197 1201 1047 1144 1293 1157 1129 1006 1444 1092 1013 1156 667 650 717 492 642 416 308 439 439 515 780 972 892
0 0 0 0 0 0 7 0 0 33 255 527 759 1183 971 761 989 1289 1302 1205 1048 1069 1194 1505 1163 1205 1245 940 903 1061 874 890 629 488 483 592 314 121 118 155 221 529 882
0 0 0 3 14 8 0 0 43 139 333 471 273 608 895 994 1101 721 962 1020 1080 1284 1316 1653 1224 1342 1339 1031 969 1076 1066 869 579 556 726 680 293 125 44 0 42 20 6
0 0 0 0 14 20 27 308 381 495 760 729 582 710 1346 1205 1330 117 835 1491 1662 1612 1487 1351 1372 1400 1311 1067 1025 1062 1042 751 674 660 664 353 490 162 64 45 28 70 61
0 0 0 0 0 1 123 533 411 664 890 797 685 784 1260 1242 1150 504 1182 1659 1713 1511 1348 1275 1157 1265 1593 1321 1005 980 981 733 697 727 611 498 347 260 363 105 50 0 0
0 0 0 0 0 14 170 344 361 625 713 614 959 699 824 1127 618 1301 1559 1723 1661 1428 1511 1370 1071 1227 935 906 908 852 975 881 723 683 537 438 296 220 349 403 39 58 101
0 0 0 0 0 0 65 238 252 427 472 393 523 987 1070 474 977 1193 1648 1838 1485 1613 1436 1244 682 255 175 303 588 909 806 868 796 670 520 363 309 283 296 299 194 202 257
0 0 0 0 0 0 0 29 99 233 337 383 492 655 1004 747 1201 1504 1631 1569 1644 1617 1387 1420 1156 309 66 5 47 511 737 588 801 701 488 302 198 295 364 254 234 174 374
0 0 0 0 0 0 0 14 102 478 614 551 667 704 965 564 649 1508 1674 1655 1727 1537 1197 1111 480 333 35 0 0 21 555 388 194 523 517 337 233 297 309 260 178 66 25
0 0 0 0 0 0 0 33 115 318 321 471 567 746 648 734 463 955 1652 1652 1765 1703 1373 1148 841 342 69 0 0 0 0 41 16 1 126 379 294 304 366 340 138 13 0
0 0 0 0 0 0 1 26 35 53 284 182 232 264 280 336 684 1119 1677 1735 1776 1800 1461 1321 592 136 13 0 0 0 0 0 0 1 0 4 0 4 14 308 36 0 0
0 0 0 0 0 0 0 0 36 74 132 150 145 170 227 474 648 620 1282 1753 1861 1820 1588 1481 811 61 0 0 0 0 0 0 0 0 0 0 0 0 0 3 0 0 0
0 0 0 0 0 0 0 5 69 107 116 192 145 102 129 471 511 664 903 1543 1830 1831 1761 1635 652 57 0 0 0 0 0 0 0 0 0 0 0 0 0 2 3 0 0
CIN
-29 -3 -2 0 0 0 0 0 0 0 0 0 0 0 0 0 0 0 0 0 -14 -5 0 -2 -23 -26 -54 -79 -59 -25 -50 -45 -23 -56 -49 -21 -20 -33 -15 -10 -6 -9 -7
-36 -5 0 0 0 0 0 0 0 0 0 0 0 0 0 0 0 0 0 0 0 0 -3 -8 -10 -9 -20 -33 -19 -57 -69 -34 -2 -7 -6 -5 -1 -13 -2 -1 -6 -14 -9
-25 -17 -4 0 0 0 0 0 -1 0 0 -1 0 0 0 0 0 0 0 -1 0 0 0 0 -2 -8 -18 -17 -39 -13 -7 -16 -22 -18 -1 -1 -12 0 -2 0 -3 -3 -3
-62 -21 -1 -1 0 -1 0 -1 0 0 0 0 0 0 -1 -2 -11 -13 0 -13 -36 -16 -6 0 0 0 0 -1 -6 -11 -55 -28 -6 0 -1 -2 -7 -13 0 -2 -1 -13 -5
-35 -25 -3 0 0 -9 0 -2 -1 -2 -7 -9 -24 -22 -12 -9 -12 -19 -23 -20 -23 -19 -28 -32 -22 -6 -3 -5 -3 -2 -9 -64 -71 -25 -18 -23 -34 -37 -3 -5 -2 -15 -7
-43 -29 -1 0 -21 0 -4 -1 0 0 0 0 0 0 0 -2 -1 -4 -16 -30 -38 -49 -37 -9 -2 0 -4 -4 -19 -22 -14 -5 -16 -72 -67 -55 -48 -49 -34 -19 -2 -1 -6
-44 -8 0 0 0 -3 -1 0 0 -1 -4 -24 -34 -39 -36 -37 -31 -16 -5 -1 0 0 -1 -5 -34 -32 -31 -6 -7 -9 -15 -19 -21 -38 -64 -84 -64 -37 -19 -12 -14 -11 -7
-91 -28 -4 -1 0 0 0 0 -1 -26 -58 -71 -63 -56 -47 -35 -24 -8 -8 -23 -21 -15 -26 -59 -66 -65 -50 -44 -35 -33 -18 -15 -16 -36 -57 -82 -86 -46 -21 -17 -17 -14 -4
-54 -47 -8 -1 0 -10 -19 -33 -41 -61 -58 -57 -52 -53 -35 -21 -22 -29 -36 -53 -42 -53 -56 -74 -75 -72 -65 -53 -47 -48 -34 -26 -11 -61 -59 -81 -71 -45 -27 -20 -18 -10 -6
-45 -77 -73 -34 -28 -90 -96 -70 -65 -60 -57 -46 -40 -28 -20 -13 -21 -25 -34 -51 -55 -54 -60 -50 -45 -45 -43 -60 -53 -28 -38 -37 -39 -45 -76 -86 -77 -59 -39 -25 -34 -27 -28
-62 -59 -100 -104 -141 -108 -139 -143 -77 -69 -50 -33 -40 -46 -92 -74 -101 -112 -63 -50 -40 -34 -39 -33 -16 -36 -51 -60 -56 -34 -18 -33 -43 -61 -75 -71 -52 -39 -31 -27 -25 -24 -23
-63 -122 -126 -148 -36 0 0 -139 -94 -89 -85 -84 -94 -104 -108 -105 -224 -95 -84 -73 -59 -48 -46 -39 -40 -41 -42 -50 -67 -80 -58 -60 -73 -74 -81 -43 -43 -45 -52 -46 -38 -30 -28
0 0 -25 0 0 0 0 -8 -112 -107 -100 -95 -92 -101 -159 -136 -142 -102 -88 -86 -85 -71 -71 -72 -61 -58 -54 -58 -72 -96 -84 -89 -72 -75 -64 -61 -60 -82 -53 -38 -38 -38 -36
0 0 0 0 0 0 0 0 0 -139 -110 -88 -75 -84 -121 -109 -91 -82 -79 -70 -74 -72 -59 -70 -64 -66 -60 -86 -96 -105 -109 -107 -79 -109 -78 -67 -74 -49 -35 -27 -14 -9 -12
0 0 0 0 0 0 -185 0 0 -145 -91 -85 -77 -64 -84 -75 -72 -74 -63 -75 -81 -77 -67 -59 -57 -60 -59 -79 -94 -84 -106 -102 -118 -118 -85 -56 -65 -114 -117 -91 -67 -24 -16
0 0 0 -92 -165 -170 0 0 -137 -119 -98 -85 -106 -92 -88 -75 -72 -85 -83 -73 -68 -66 -61 -44 -49 -44 -41 -66 -77 -82 -84 -111 -138 -141 -76 -62 -108 -135 -122 0 -132 -175 -207
0 0 0 0 -152 -131 -140 -101 -96 -91 -94 -70 -80 -67 -66 -54 -76 -164 -85 -57 -67 -73 -49 -51 -51 -61 -64 -100 -98 -94 -93 -129 -135 -138 -107 -147 -89 -129 -135 -124 -121 -106 -150
0 0 0 0 0 -17 -123 -80 -92 -70 -69 -77 -78 -67 -44 -46 -79 -92 -70 -52 -60 -55 -55 -58 -76 -70 -75 -97 -96 -104 -95 -147 -137 -124 -114 -111 -141 -136 -77 -117 -133 0 0
0 0 0 0 0 -124 -109 -88 -82 -72 -71 -87 -76 -63 -54 -56 -75 -59 -52 -54 -58 -50 -43 -66 -101 -89 -134 -132 -124 -115 -115 -125 -128 -112 -123 -131 -162 -143 -86 -63 -61 -146 -117
0 0 0 0 0 0 -177 -110 -96 -75 -63 -81 -59 -44 -48 -81 -57 -59 -47 -40 -50 -40 -53 -79 -159 -306 -359 -310 -176 -116 -154 -117 -98 -129 -127 -135 -138 -118 -93 -89 -81 -69 -22
0 0 0 0 0 0 0 -172 -112 -59 -62 -66 -64 -50 -39 -66 -50 -48 -41 -44 -53 -43 -62 -66 -81 -261 -415 -593 -430 -211 -153 -180 -92 -83 -128 -164 -165 -117 -77 -95 -67 -33 -18
0 0 0 0 0 0 0 -87 -151 -67 -63 -74 -66 -63 -55 -97 -86 -48 -33 -36 -41 -50 -79 -84 -196 -238 -451 0 0 -394 -155 -233 -357 -165 -132 -169 -176 -113 -74 -79 -76 -102 -74
0 0 0 0 0 0 -10 -227 -185 -131 -118 -66 -58 -48 -71 -74 -101 -66 -42 -43 -35 -39 -60 -82 -121 -228 -364 0 0 0 0 -358 -537 -143 -389 -162 -151 -85 -51 -48 -69 -85 0
0 0 0 0 0 0 -20 -249 -214 -185 -107 -152 -125 -122 -121 -134 -86 -58 -43 -36 -36 -39 -48 -66 -187 -362 -559 0 0 0 0 0 0 -104 0 -103 -6 -67 -32 -45 -61 0 0
0 0 0 0 0 0 0 0 -253 -214 -201 -207 -189 -161 -154 -121 -83 -68 -52 -39 -36 -41 -38 -48 -120 -377 0 0 0 0 0 0 0 0 0 0 0 0 0 0 0 -5 0
0 0 0 0 0 0 0 -97 -254 -251 -243 -179 -203 -155 -163 -117 -97 -80 -58 -45 -40 -41 -37 -42 -158 -402 0 0 0 0 0 0 0 0 0 0 0 0 0 0 -42 0 0
Wind_Speed
25 25 26 27 27 27 27 26 26 28 27 27 27 26 26 27 28 27 27 26 26 25 23 22 21 19 18 18 18 18 18 19 18 17 16 16 16 15 14 17 14 11 10
28 26 26 26 26 25 25 24 19 23 26 27 26 26 26 26 26 26 26 26 25 24 24 22 21 20 19 18 18 18 17 18 19 19 20 19 17 18 18 17 17 16 16
28 27 25 25 24 25 24 24 25 24 24 24 25 25 23 23 23 24 23 23 23 22 21 20 19 18 18 18 18 18 17 18 17 17 18 19 18 18 18 17 19 14 14
28 27 25 26 25 23 22 21 20 20 24 23 22 23 23 23 23 22 22 21 21 20 18 18 17 16 16 16 16 17 17 17 17 17 17 17 18 18 18 17 14 11 12
27 27 26 26 26 25 25 24 24 24 23 23 22 22 21 21 21 21 21 20 19 17 17 15 14 14 14 15 15 16 17 17 18 18 19 18 18 18 18 19 19 11 10
27 26 25 25 25 25 25 25 25 25 24 22 20 20 19 18 18 18 18 18 17 16 16 15 15 15 15 15 15 15 16 17 18 19 19 19 19 18 18 18 19 17 11
27 25 25 26 25 24 24 24 24 23 20 19 18 17 16 16 16 17 17 17 17 16 15 15 14 14 14 14 14 14 15 16 17 18 19 19 19 19 18 18 17 16 14
27 26 25 25 24 24 23 23 21 20 19 17 16 16 16 16 16 17 18 18 17 16 16 16 15 15 15 14 14 14 14 15 16 18 19 19 19 18 17 17 15 14 12
26 26 25 24 24 23 23 22 20 19 17 16 15 15 16 17 18 18 18 17 16 16 15 16 15 14 13 13 13 13 14 14 15 16 17 16 15 14 14 12 12 11 10
25 25 25 25 23 24 23 22 19 17 16 15 14 14 14 14 13 14 17 16 15 15 15 14 14 13 13 12 12 13 13 14 14 15 14 13 12 12 9 9 8 6 4
24 24 25 25 24 23 21 20 18 17 16 15 13 13 12 12 13 12 14 13 13 14 12 12 13 13 13 12 12 12 12 15 14 13 12 11 9 7 7 4 4 2 2
25 25 25 24 24 23 21 20 18 17 15 14 14 14 13 13 12 13 13 13 12 11 11 11 11 12 12 13 13 13 14 16 15 14 15 13 13 12 13 14 11 11 10
26 25 25 25 24 24 23 20 19 17 15 14 14 14 13 13 12 12 13 12 12 12 13 12 12 11 12 13 14 15 19 19 17 17 16 15 15 16 17 18 18 18 17
27 26 25 26 25 24 22 19 19 17 15 14 13 14 13 12 11 11 12 11 12 13 12 11 11 11 12 14 15 17 18 19 19 18 18 19 19 19 19 20 18 18 17
27 28 27 27 26 24 22 19 18 16 15 15 14 13 14 12 10 10 11 10 12 12 13 9 10 10 13 14 16 16 17 18 19 18 18 18 19 19 20 20 19 18 17
28 29 28 27 26 23 21 18 17 17 15 14 13 14 13 13 10 9 10 9 12 10 10 9 9 10 13 16 16 16 16 16 16 16 16 17 18 19 19 21 20 19 18
28 29 29 27 24 22 21 18 17 16 14 13 15 14 14 12 12 11 10 10 13 12 10 8 12 13 13 14 14 14 15 14 14 14 14 15 16 16 17 19 20 20 20
28 28 28 26 25 23 23 20 17 14 12 12 15 16 14 12 14 13 10 8 13 11 9 8 10 12 12 12 12 12 12 12 12 12 12 12 13 13 14 16 16 18 19
27 27 27 27 26 25 23 20 17 15 13 13 14 16 14 14 17 14 8 8 9 8 7 11 13 14 15 13 11 10 10 9 9 9 9 9 10 11 12 13 14 15 17
27 28 27 27 27 26 23 21 20 17 15 14 13 15 15 16 16 16 8 9 8 7 6 9 20 18 13 12 12 10 8 8 7 7 7 7 8 10 10 11 12 12 15
28 27 27 27 27 26 25 23 22 19 17 15 14 15 14 17 17 17 9 9 7 10 5 14 16 13 16 19 16 14 11 8 7 7 7 6 7 8 8 9 13 14 15
27 27 27 26 25 24 24 24 22 19 18 17 16 16 15 15 17 15 15 8 8 18 10 25 25 19 18 23 19 16 16 15 13 10 7 6 7 8 8 9 11 13 12
27 27 27 27 26 23 18 5 11 18 18 17 14 17 14 14 13 13 15 15 20 22 22 23 25 25 21 20 24 19 18 17 18 17 12 10 10 9 9 8 9 10 11
30 28 28 27 27 26 16 9 9 11 12 19 18 17 16 15 14 14 14 15 18 20 21 22 24 24 22 21 19 22 21 18 20 19 18 18 18 16 13 9 9 9 8
21 26 27 27 26 25 23 16 15 17 18 21 20 18 17 17 13 13 12 12 13 17 19 20 20 23 23 22 22 21 20 19 20 20 20 21 20 22 21 14 10 10 10
9 10 16 25 25 24 22 18 17 17 15 15 12 13 16 16 12 12 10 10 10 13 14 15 17 19 21 21 22 22 21 21 21 21 22 22 22 23 24 21 16 14 13
Wind_Direction
153 146 142 135 135 133 133 129 132 119 115 118 121 123 117 108 104 107 107 105 103 114 118 125 129 133 137 133 136 155 160 146 157 166 215 208 198 222 244 193 220 240 254
140 148 143 140 144 145 143 146 168 150 129 121 125 122 116 111 116 114 106 99 104 115 113 120 120 124 127 128 128 142 182 172 160 157 162 164 175 177 186 187 190 189 137
132 145 151 148 150 146 148 146 144 145 141 141 128 127 143 134 129 114 107 102 111 120 122 123 125 133 132 127 128 139 165 176 206 209 200 187 200 200 199 199 171 55 54
123 136 143 133 142 150 155 160 164 164 144 145 146 138 130 123 120 116 110 114 126 135 137 135 140 142 138 139 142 143 152 165 185 209 216 208 196 198 205 221 185 41 40
123 129 131 127 129 138 138 142 141 140 140 138 142 141 135 129 127 123 125 133 142 147 145 150 152 156 158 157 159 155 156 160 173 189 197 196 198 199 197 187 184 77 34
123 131 134 128 136 138 137 130 127 130 133 141 148 146 142 148 144 150 155 157 155 154 153 150 149 149 154 151 163 171 168 163 165 174 181 175 175 183 184 180 175 153 78
129 151 150 139 142 147 146 146 143 144 155 158 160 159 162 159 158 163 165 165 163 160 156 154 156 159 162 161 165 169 175 178 178 177 179 179 181 187 188 172 160 147 135
135 146 154 150 153 156 157 157 161 163 165 168 167 166 165 163 160 156 150 149 152 149 145 142 142 142 146 154 161 160 172 179 179 178 179 179 184 184 188 174 157 149 137
144 145 154 157 156 162 163 161 163 164 174 178 174 171 165 156 149 148 147 146 143 145 147 143 139 141 148 151 154 163 165 176 168 171 170 163 160 166 177 159 155 144 139
148 151 148 152 160 160 161 161 173 183 184 185 183 178 178 172 174 163 147 147 148 147 143 139 132 141 147 156 156 166 169 172 153 155 157 148 153 174 161 170 156 137 105
165 160 154 150 161 167 171 174 178 182 183 185 190 191 189 178 171 170 151 151 149 138 138 145 133 134 144 144 141 139 145 146 151 162 145 134 131 122 71 108 111 81 17
161 163 163 161 165 171 174 175 176 177 180 184 183 177 179 176 172 164 155 145 144 147 140 148 157 151 147 144 142 134 127 123 125 120 111 104 81 61 29 9 357 345 337
162 167 170 167 166 165 167 169 167 172 175 180 181 172 177 177 165 160 147 145 141 141 121 126 134 143 152 153 145 127 107 102 99 94 92 81 61 42 24 2 342 331 327
160 166 174 171 171 168 169 173 168 180 178 189 184 176 172 176 180 162 153 153 142 129 124 132 146 150 145 148 148 120 101 97 97 93 82 69 58 45 29 11 355 341 335
161 161 165 167 168 169 174 176 178 182 181 180 182 178 170 167 175 163 153 154 135 130 121 147 147 162 147 144 128 114 106 102 96 87 75 66 60 54 46 32 19 12 2
167 162 161 166 169 172 180 184 184 178 181 189 187 179 174 165 172 171 161 156 131 159 155 154 160 169 146 130 113 107 105 97 92 84 77 70 64 62 58 47 35 24 11
166 166 165 173 182 184 185 188 184 178 180 193 179 182 166 162 152 146 145 139 125 144 158 158 142 139 132 121 113 102 100 100 94 90 80 75 69 67 61 51 46 36 27
167 167 169 177 179 186 187 190 190 200 209 216 182 171 171 154 131 134 157 156 132 153 155 149 153 133 115 116 112 106 103 104 95 84 70 75 68 63 57 50 43 35 27
167 170 166 172 179 182 190 198 213 212 220 207 182 154 157 141 105 123 183 234 173 184 156 124 114 111 98 95 103 98 107 103 85 76 74 75 63 53 49 43 35 28 23
172 178 177 175 180 192 204 208 208 212 220 200 193 153 137 118 116 110 225 266 205 184 232 127 71 76 94 90 81 87 98 93 78 65 58 59 51 40 38 32 24 24 17
177 176 178 174 180 187 202 202 203 210 222 213 226 169 150 90 87 93 175 164 235 275 195 98 86 89 66 50 56 57 66 66 59 43 41 39 32 25 23 18 14 13 17
176 175 175 177 176 174 171 199 225 236 232 224 225 182 154 104 76 113 107 187 261 72 347 21 36 62 60 43 50 50 48 43 37 39 38 26 21 13 4 9 9 8 13
174 174 174 180 181 170 148 69 293 261 254 259 286 192 201 219 160 143 106 99 49 32 44 44 35 35 52 54 42 49 49 43 31 32 34 31 20 7 0 357 4 11 11
181 177 180 178 183 181 145 126 113 120 119 239 241 224 233 214 160 124 97 81 58 44 44 37 33 37 48 50 52 45 43 40 35 31 34 29 27 19 5 350 2 11 18
162 170 176 181 179 176 172 154 148 156 162 197 208 219 240 233 132 129 109 96 87 58 47 44 42 37 42 45 42 43 42 40 40 32 27 28 27 22 18 17 24 30 31
158 152 157 175 182 178 172 162 160 163 157 162 154 161 204 187 147 116 123 120 109 71 60 56 48 43 40 41 38 36 37 35 32 31 26 26 23 24 27 32 39 41 42